This demonstration page uses our WeatherBlox Daily Observations layout. Learn more.

Left ArrowRight Arrow

Hourly Observations for November 10, 2015

Temp ( °F °C ) Dew Point ( °F °C ) Humidity (%) Winds ( mph kmh ) Pressure ( in mb ) Visibility ( mi km ) Precip ( " mm )
12:53 am 00:53 Cloudy 54 12.2 52 11.1 93 93 Calm 30.09 1019 7 11 0.00 0.00
1:53 am 01:53 Cloudy 54 12.2 51 10.6 90 90 Calm 30.09 1019 10 16 0.00 0.00
2:53 am 02:53 Cloudy 54 12.2 51 10.6 90 90 Calm 30.09 1019 10 16 0.00 0.00
3:53 am 03:53 Cloudy with Mist and Fog 54 12.2 51 10.6 90 90 Calm 30.09 1019 6 10 0.00 0.00
4:33 am 04:33 Cloudy 54 12.2 52 11.1 93 93 Calm 30.12 1020 8 13 0.00 0.00
4:53 am 04:53 Cloudy with Mist and Fog 54 12.2 52 11.1 93 93 Calm 30.09 1019 6 10 0.00 0.00
5:03 am 05:03 Cloudy with Mist and Fog 54 12 52 11 94 94 Calm 30.12 1020 5 8 0.00 0.00
5:29 am 05:29 Cloudy 54 12.2 52 11.1 93 93 Calm 30.12 1020 10 16 0.00 0.00
5:53 am 05:53 Cloudy 54 12.2 51 10.6 90 90 NW 5 7 30.09 1019 10 16 0.00 0.00
6:53 am 06:53 Cloudy 54 12.2 50 10 87 87 NW 5 7 30.11 1020 10 16 0.00 0.00
7:53 am 07:53 Cloudy 54 12.2 51 10.6 90 90 NNW 3 6 30.12 1020 7 11 0.00 0.00
8:53 am 08:53 Cloudy 55 12.8 51 10.6 87 87 NNW 7 11 30.14 1021 10 16 0.00 0.00
9:53 am 09:53 Cloudy 56 13.3 52 11.1 87 87 NNW 9 15 30.13 1020 10 16 0.00 0.00
10:21 am 10:21 Cloudy 56 13.3 51 10.6 84 84 VRB 5 7 30.15 1021 10 16 0.00 0.00
10:53 am 10:53 Cloudy 57 13.9 51 10.6 81 81 NW 8 13 30.14 1021 10 16 0.00 0.00
11:53 am 11:53 Cloudy 59 15 51 10.6 75 75 NW 9 15 30.13 1020 10 16 0.00 0.00
12:20 pm 12:20 Mostly Cloudy 59 15 52 11 77 77 WNW 10 17 30.12 1020 10 16 0.00 0.00
12:53 pm 12:53 Partly Cloudy 61 16.1 51 10.6 70 70 WNW 10 17 30.09 1019 10 16 0.00 0.00
1:53 pm 13:53 Sunny 63 17.2 51 10.6 65 65 WNW 12 19 30.07 1018 10 16 0.00 0.00
2:53 pm 14:53 Sunny 66 18.9 52 11.1 61 61 VRB 6 9 30.06 1018 10 16 0.00 0.00
3:53 pm 15:53 Sunny 66 18.9 50 10 56 56 NW 8 13 30.04 1017 10 16 0.00 0.00
4:53 pm 16:53 Sunny 64 17.8 50 10 60 60 W 8 13 30.04 1017 10 16 0.00 0.00
5:53 pm 17:53 Clear 61 16.1 51 10.6 70 70 W 3 6 30.05 1018 10 16 0.00 0.00
6:53 pm 18:53 Clear 55 12.8 51 10.6 87 87 Calm 30.06 1018 10 16 0.00 0.00
7:53 pm 19:53 Clear 54 12.2 50 10 87 87 Calm 30.08 1019 10 16 0.00 0.00
8:53 pm 20:53 Clear 52 11.1 49 9.4 89 89 Calm 30.08 1019 10 16 0.00 0.00
9:53 pm 21:53 Clear with Mist and Fog 50 10 48 8.9 93 93 Calm 30.07 1018 6 10 0.00 0.00
10:33 pm 22:33 Clear with Mist and Fog 50 10 47 8.3 89 89 Calm 30.12 1020 3 4 0.00 0.00
10:40 pm 22:40 Clear 50 10 46 8 88 88 Calm 30.12 1020 10 16 0.00 0.00
10:53 pm 22:53 Clear 49 9.4 47 8.3 93 93 Calm 30.07 1018 10 16 0.00 0.00
11:53 pm 23:53 Clear 48 8.9 46 7.8 93 93 Calm 30.06 1018 10 16 0.00 0.00

Powered by AerisWeather